Sussex, NJ

9:14 AM EST on February 25, 2017 (GMT -0500)
Sussex

Weather History for KFWN - March, 2014

Change the Weather History Date:

Sunday, March 9, 2014

  Actual Average Record
Temperature  
Mean Temperature 33 °F -  
Max Temperature 39 °F 44 °F 78 °F (2016)
Min Temperature 27 °F 21 °F 5 °F (1960)
Degree Days  
Heating Degree Days 32    
Moisture  
Dew Point 16 °F    
Average Humidity 49    
Maximum Humidity 69    
Minimum Humidity 32    
Precipitation  
Precipitation 0.00 in - - ()
Sea Level Pressure  
Sea Level Pressure 29.97 in    
Wind  
Wind Speed 6 mph (NW)    
Max Wind Speed 13 mph    
Max Gust Speed 21 mph    
Visibility 10 miles    
Events Rain    
Averages and records for this station are not official NWS values.
T = Trace of Precipitation, MM = Missing Value Source: NWS Daily Summary

Daily Weather History Graph

Daily Weather History Graph

Search for Another Location

Airport or City:

Trip Planner

Search our weather history database for the weather conditions in past years. The results will help you decide how hot, cold, wet, or windy it might be!

Date:

Astronomy

Mar. 09, 2014 Rise Set
Actual Time 7:20 AM EDT 6:58 PM EDT
Civil Twilight 6:52 AM EDT 7:25 PM EDT
Nautical Twilight 6:20 AM EDT 7:57 PM EDT
Astronomical Twilight 5:48 AM EDT 8:30 PM EDT
Moon 12:46 PM EDT (3/9) 3:46 AM EDT (3/9)
Length of Visible Light 12h 33m
Length of Day
11h 38m
First Quarter, 61% of the Moon is Illuminated
Mar 9
First Quarter
Mar 16
Full
Mar 23
Last Quarter
Mar 30
New
Apr 7
First Quarter

Hourly Weather History & Observations

Time (EDT) Temp. Windchill Dew Point Humidity Pressure Visibility Wind Dir Wind Speed Gust Speed Precip Events Conditions
12:53 AM 37.0 °F 33.3 °F 26.1 °F 65% 29.91 in 9.0 mi NNW 4.6 mph - N/A   Overcast
1:53 AM 36.0 °F 32.1 °F 26.1 °F 67% 29.91 in 10.0 mi WNW 4.6 mph - N/A   Overcast
3:53 AM 36.0 °F 32.1 °F 25.0 °F 64% 29.91 in 10.0 mi Variable 4.6 mph - N/A   Overcast
4:53 AM 36.0 °F 33.3 °F 24.1 °F 62% 29.93 in 10.0 mi NW 3.5 mph - N/A   Overcast
5:53 AM 34.0 °F 28.8 °F 21.9 °F 61% 29.95 in 10.0 mi Variable 5.8 mph - N/A   Overcast
6:53 AM 33.1 °F 27.7 °F 18.0 °F 54% 29.98 in 10.0 mi NNW 5.8 mph - N/A   Scattered Clouds
7:53 AM 32.0 °F 28.7 °F 16.0 °F 52% 29.99 in 10.0 mi Variable 3.5 mph - N/A   Clear
8:53 AM 33.1 °F 26.1 °F 19.0 °F 56% 30.01 in 10.0 mi WNW 8.1 mph - N/A   Clear
9:53 AM 34.0 °F 26.0 °F 19.0 °F 54% 30.03 in 10.0 mi NW 10.4 mph 19.6 mph 0.00 in   Partly Cloudy
10:53 AM 35.1 °F 26.4 °F 15.1 °F 44% 30.04 in 10.0 mi North 12.7 mph 20.7 mph 0.00 in   Partly Cloudy
11:53 AM 36.0 °F 29.0 °F 12.9 °F 39% 30.03 in 10.0 mi North 9.2 mph 19.6 mph 0.00 in   Clear
12:53 PM 37.0 °F 29.8 °F 10.9 °F 34% 30.02 in 10.0 mi NW 10.4 mph 16.1 mph 0.00 in   Clear
1:53 PM 37.0 °F 31.0 °F 12.0 °F 36% 30.01 in 10.0 mi NNW 8.1 mph - 0.00 in Rain Light Rain
2:53 PM 37.9 °F 30.9 °F 12.9 °F 36% 29.99 in 10.0 mi NW 10.4 mph - 0.00 in Rain Light Rain
3:53 PM 39.0 °F 31.8 °F 10.9 °F 32% 29.98 in 10.0 mi NNW 11.5 mph 18.4 mph 0.00 in   Clear
4:53 PM 39.0 °F 34.0 °F 12.0 °F 33% 29.97 in 10.0 mi West 6.9 mph - 0.00 in   Clear
5:53 PM 37.9 °F 31.5 °F 10.0 °F 32% 29.96 in 10.0 mi NW 9.2 mph - N/A   Clear
6:53 PM 36.0 °F 31.1 °F 10.0 °F 34% 29.97 in 10.0 mi West 5.8 mph - N/A   Clear
7:53 PM 35.1 °F - 8.1 °F 33% 29.99 in 10.0 mi Calm Calm - N/A   Clear
8:53 PM 33.1 °F - 12.9 °F 43% 29.99 in 10.0 mi Calm Calm - N/A   Clear
9:53 PM 30.0 °F 26.5 °F 17.1 °F 59% 29.98 in 10.0 mi SW 3.5 mph - N/A   Mostly Cloudy
10:53 PM 28.0 °F - 17.1 °F 63% 29.96 in 10.0 mi Calm Calm - N/A   Clear
11:53 PM 27.0 °F - 18.0 °F 69% 29.94 in 10.0 mi Calm Calm - N/A   Clear
12:53 AM 28.0 °F 24.2 °F 15.1 °F 58% 29.91 in 10.0 mi SW 3.5 mph - N/A   Clear